JUGNU

导读 | 星芒AI

JUGNU 是印度一所大学研发的微型卫星,旨在通过低成本技术促进教育和科研。该卫星重量轻,功能包括数据传输和图像采集,主要用于环境监测和通信实验。JUGNU 项目展示了学生在航天工程中的创新能力,并为未来更复杂的太空任务奠定了基础。

基本信息
目录编号:
37839
目录名称:
JUGNU
国际标识:
2011-058B
轨道中心:
EARTH
卫星名称:
JUGNU
卫星全名:
--
卫星状态:
在轨 (已飞行5128 天)
发射日期:
2011-10-12 UTC
国别 :
印度 (IN)
星等 :
--
轨道信息
数据来源 国际轨道数据
星历时间: 2025-10-26T15:28:12+0800
12小时前
查看轨道信息
半长轴: 7224.989km
偏心率: 0.0018615
轨道倾角: 19.961°
近地点辐角 14.360°
升交点赤经 289.206°
平近点角 13.979°
近地点: 833.404km
远地点: 860.304km
周期: 101.863分钟
每日圈数: 14.136667
详细信息
使用方式:
暂无
2D轨道图
3D轨道图
轨道高度分析图
轨道倾角分析图
轨道综合分析图
查看轨道综合分析图